Total_Precipitation_Accumulation
0.43 0.46 0.64 0.61 0.45 0.44 0.70 0.72 0.78 0.51 0.46 0.54 0.58 0.65 0.62 0.58 0.50 0.43 0.42 0.44 0.51 0.61 0.65 0.63 0.69 0.71 0.71 0.77 0.82 0.88 0.89 0.89 0.87 0.85 0.86 0.91 0.99 1.05 1.09 1.11 1.10 1.10 1.16 1.22
0.49 0.43 0.55 0.51 0.34 0.33 0.38 0.41 0.46 0.39 0.49 0.50 0.53 0.57 0.60 0.58 0.48 0.39 0.39 0.40 0.43 0.53 0.69 0.64 0.70 0.79 0.79 0.84 0.93 0.95 0.98 0.93 0.90 0.86 0.84 0.83 0.85 0.89 0.94 1.01 1.02 1.03 1.07 1.08
0.80 0.41 0.58 0.62 0.44 0.40 0.42 0.42 0.43 0.52 0.53 0.43 0.48 0.56 0.60 0.55 0.42 0.38 0.37 0.37 0.41 0.47 0.63 0.72 0.75 0.86 0.94 0.97 1.02 1.01 1.01 0.94 0.88 0.84 0.83 0.82 0.80 0.82 0.87 0.94 1.01 1.08 1.11 1.13
1.15 0.73 0.85 0.63 0.44 0.41 0.43 0.45 0.42 0.44 0.41 0.40 0.46 0.50 0.50 0.45 0.40 0.35 0.32 0.32 0.37 0.42 0.48 0.61 0.66 0.76 0.88 0.96 1.06 1.06 1.05 1.03 0.99 0.97 0.98 1.01 1.01 1.03 1.05 1.04 1.11 1.22 1.29 1.31
1.23 0.91 0.54 0.33 0.27 0.40 0.49 0.51 0.42 0.35 0.31 0.28 0.30 0.38 0.45 0.39 0.36 0.37 0.34 0.32 0.32 0.36 0.38 0.45 0.54 0.62 0.74 0.90 1.07 1.18 1.24 1.24 1.25 1.26 1.29 1.32 1.34 1.34 1.34 1.36 1.38 1.39 1.40 1.36
1.25 1.04 0.56 0.34 0.17 0.23 0.40 0.61 0.34 0.26 0.26 0.25 0.25 0.39 0.47 0.41 0.36 0.35 0.34 0.32 0.32 0.33 0.35 0.40 0.51 0.60 0.74 0.96 1.16 1.31 1.36 1.39 1.41 1.47 1.52 1.48 1.44 1.40 1.33 1.30 1.34 1.34 1.35 1.33
1.03 1.01 0.57 0.36 0.19 0.18 0.56 0.71 0.33 0.28 0.29 0.30 0.36 0.44 0.39 0.35 0.37 0.37 0.37 0.40 0.41 0.43 0.47 0.50 0.57 0.68 0.85 1.00 1.15 1.24 1.29 1.32 1.33 1.31 1.31 1.27 1.24 1.20 1.16 1.13 1.08 1.06 1.04 1.02
0.78 1.06 0.77 0.39 0.28 0.51 0.70 0.45 0.35 0.28 0.28 0.31 0.32 0.29 0.26 0.25 0.27 0.30 0.33 0.40 0.49 0.56 0.61 0.61 0.65 0.76 0.86 0.91 0.96 0.97 0.99 1.01 1.02 0.96 0.89 0.89 0.92 0.93 0.92 0.92 0.90 0.86 0.83 0.83
0.79 0.86 0.70 0.52 0.57 0.63 0.53 0.46 0.35 0.31 0.29 0.28 0.28 0.26 0.23 0.21 0.20 0.21 0.21 0.24 0.30 0.39 0.45 0.46 0.47 0.53 0.60 0.59 0.57 0.58 0.59 0.63 0.66 0.66 0.63 0.62 0.67 0.71 0.74 0.76 0.78 0.77 0.75 0.76
0.66 0.62 0.50 0.48 0.47 0.46 0.44 0.45 0.39 0.34 0.31 0.29 0.30 0.27 0.24 0.21 0.19 0.17 0.17 0.18 0.20 0.23 0.26 0.27 0.28 0.30 0.34 0.34 0.33 0.35 0.40 0.46 0.52 0.56 0.58 0.58 0.60 0.65 0.69 0.72 0.75 0.76 0.77 0.76
0.61 0.50 0.44 0.40 0.38 0.40 0.38 0.34 0.32 0.29 0.28 0.29 0.29 0.29 0.26 0.25 0.23 0.21 0.20 0.20 0.21 0.24 0.25 0.25 0.26 0.26 0.28 0.30 0.29 0.31 0.34 0.38 0.44 0.50 0.57 0.59 0.60 0.62 0.69 0.73 0.86 1.04 1.04 0.97
0.67 0.51 0.56 0.49 0.38 0.35 0.33 0.31 0.31 0.31 0.31 0.30 0.29 0.31 0.28 0.27 0.26 0.25 0.25 0.24 0.24 0.25 0.28 0.31 0.33 0.34 0.34 0.35 0.35 0.35 0.38 0.40 0.46 0.50 0.55 0.59 0.62 0.64 0.68 0.73 0.81 0.90 0.98 1.05
0.57 0.47 0.47 0.44 0.36 0.32 0.31 0.31 0.30 0.28 0.29 0.28 0.27 0.28 0.28 0.30 0.29 0.27 0.27 0.29 0.32 0.34 0.37 0.39 0.39 0.39 0.40 0.41 0.43 0.44 0.46 0.49 0.54 0.55 0.57 0.58 0.61 0.66 0.67 0.68 0.73 0.77 0.82 0.89
0.41 0.38 0.39 0.36 0.36 0.32 0.29 0.28 0.27 0.25 0.25 0.25 0.26 0.25 0.26 0.27 0.26 0.28 0.32 0.35 0.36 0.36 0.37 0.39 0.40 0.42 0.44 0.46 0.49 0.50 0.51 0.57 0.62 0.62 0.63 0.65 0.66 0.68 0.71 0.73 0.72 0.69 0.72 0.82
0.32 0.35 0.41 0.38 0.33 0.30 0.29 0.27 0.25 0.25 0.26 0.26 0.27 0.27 0.26 0.27 0.27 0.28 0.30 0.32 0.32 0.33 0.34 0.35 0.37 0.41 0.44 0.48 0.52 0.53 0.53 0.57 0.62 0.66 0.69 0.71 0.70 0.71 0.72 0.72 0.70 0.65 0.65 0.72
0.34 0.31 0.31 0.31 0.33 0.33 0.30 0.29 0.28 0.29 0.29 0.29 0.29 0.30 0.30 0.29 0.29 0.28 0.27 0.27 0.30 0.33 0.34 0.37 0.40 0.42 0.43 0.47 0.52 0.53 0.54 0.63 0.68 0.69 0.68 0.71 0.73 0.73 0.73 0.72 0.70 0.66 0.65 0.69
0.48 0.44 0.41 0.41 0.37 0.36 0.37 0.37 0.37 0.38 0.36 0.34 0.34 0.33 0.31 0.29 0.27 0.26 0.28 0.30 0.32 0.35 0.36 0.39 0.43 0.42 0.43 0.47 0.52 0.55 0.55 0.60 0.68 0.66 0.64 0.68 0.76 0.79 0.77 0.76 0.74 0.69 0.64 0.71
0.55 0.57 0.58 0.60 0.56 0.50 0.45 0.42 0.40 0.40 0.41 0.40 0.37 0.34 0.33 0.33 0.33 0.33 0.34 0.33 0.32 0.32 0.34 0.37 0.42 0.43 0.42 0.46 0.53 0.56 0.58 0.59 0.62 0.66 0.69 0.74 0.82 0.85 0.85 0.83 0.79 0.77 0.72 0.75
0.46 0.48 0.48 0.51 0.54 0.53 0.50 0.47 0.47 0.46 0.44 0.42 0.39 0.39 0.37 0.37 0.37 0.38 0.36 0.35 0.33 0.34 0.36 0.37 0.43 0.41 0.40 0.46 0.57 0.59 0.61 0.64 0.65 0.66 0.71 0.79 0.83 0.80 0.83 0.86 0.85 0.83 0.83 0.83
0.39 0.39 0.40 0.44 0.46 0.47 0.48 0.47 0.46 0.46 0.45 0.45 0.43 0.40 0.38 0.38 0.39 0.40 0.37 0.37 0.40 0.44 0.41 0.42 0.41 0.37 0.39 0.44 0.56 0.61 0.62 0.64 0.67 0.68 0.70 0.74 0.75 0.75 0.76 0.80 0.83 0.84 0.84 0.84
0.41 0.39 0.38 0.40 0.44 0.45 0.46 0.47 0.47 0.49 0.48 0.46 0.47 0.47 0.44 0.42 0.42 0.41 0.40 0.38 0.38 0.38 0.37 0.38 0.36 0.38 0.46 0.60 0.64 0.59 0.58 0.61 0.63 0.66 0.69 0.70 0.71 0.70 0.71 0.75 0.78 0.79 0.80 0.80
0.43 0.43 0.42 0.42 0.44 0.47 0.48 0.48 0.47 0.47 0.45 0.44 0.44 0.44 0.42 0.40 0.37 0.36 0.36 0.39 0.39 0.42 0.43 0.36 0.37 0.50 0.71 0.78 0.64 0.54 0.54 0.58 0.61 0.64 0.67 0.68 0.69 0.70 0.69 0.70 0.74 0.74 0.76 0.78
0.45 0.45 0.44 0.43 0.42 0.42 0.40 0.40 0.41 0.42 0.43 0.44 0.44 0.44 0.42 0.40 0.39 0.40 0.40 0.36 0.37 0.44 0.46 0.42 0.51 0.67 0.79 0.72 0.57 0.55 0.58 0.60 0.61 0.62 0.65 0.67 0.70 0.73 0.73 0.71 0.72 0.73 0.75 0.75
0.38 0.38 0.39 0.37 0.33 0.30 0.31 0.32 0.33 0.35 0.36 0.37 0.38 0.38 0.37 0.35 0.32 0.31 0.34 0.36 0.39 0.46 0.45 0.46 0.56 0.65 0.66 0.58 0.53 0.56 0.59 0.59 0.60 0.61 0.62 0.63 0.65 0.67 0.68 0.67 0.66 0.64 0.66 0.68
0.33 0.31 0.29 0.28 0.26 0.25 0.26 0.26 0.25 0.25 0.26 0.28 0.29 0.30 0.31 0.33 0.36 0.33 0.29 0.29 0.32 0.38 0.38 0.39 0.45 0.50 0.49 0.47 0.49 0.53 0.55 0.58 0.65 0.68 0.66 0.63 0.62 0.62 0.61 0.61 0.62 0.62 0.60 0.61
0.29 0.27 0.27 0.27 0.26 0.26 0.25 0.23 0.23 0.22 0.23 0.25 0.26 0.27 0.29 0.31 0.31 0.30 0.29 0.29 0.30 0.34 0.34 0.33 0.35 0.38 0.41 0.43 0.47 0.48 0.50 0.52 0.55 0.57 0.57 0.58 0.58 0.58 0.56 0.55 0.55 0.55 0.55 0.56
0.22 0.21 0.20 0.20 0.20 0.21 0.22 0.23 0.24 0.24 0.24 0.27 0.30 0.28 0.29 0.29 0.28 0.28 0.27 0.28 0.29 0.30 0.30 0.30 0.32 0.36 0.39 0.42 0.43 0.44 0.44 0.46 0.48 0.50 0.51 0.53 0.53 0.53 0.52 0.53 0.53 0.53 0.53 0.53